This is the latest recevied weather packets stored in our database for station/object HS6TUX-4. If no packets are shown the sender has not sent any weather packets the latest 10 day(s).
| Time | Temp. | Humidity | Pressure | Rain* | Wind** | Luminosity | Snow |
|---|---|---|---|---|---|---|---|
| 1777811241 | 34.44° C | 71% | 732 hPa | - | - | 0 W/m² | - |
| 1777810313 | 35° C | 69% | 733 hPa | - | - | 0 W/m² | - |
| 1777809385 | 35° C | 66% | 733 hPa | - | - | 0 W/m² | - |
| 1777808457 | 36.11° C | 62% | 734 hPa | - | - | 0 W/m² | - |
| 1777807529 | 36.67° C | 57% | 735 hPa | - | - | 2 W/m² | - |
| 1777806600 | 37.78° C | 53% | 736 hPa | - | - | 4 W/m² | - |
| 1777805672 | 38.89° C | 48% | 737 hPa | - | - | 6 W/m² | - |
| 1777804744 | 39.44° C | 43% | 738 hPa | - | - | 7 W/m² | - |
| 1777803815 | 40° C | 43% | 738 hPa | - | - | 8 W/m² | - |
| 1777802887 | 40° C | 42% | 739 hPa | - | - | 9 W/m² | - |
| 1777801959 | 40.56° C | 43% | 739 hPa | - | - | 10 W/m² | - |
| 1777801031 | 41.11° C | 42% | 740 hPa | - | - | 11 W/m² | - |
| 1777800103 | 40.56° C | 42% | 739 hPa | - | - | 12 W/m² | - |
| 1777799175 | 41.11° C | 42% | 740 hPa | - | - | 14 W/m² | - |
| 1777798247 | 41.11° C | 42% | 740 hPa | - | - | 15 W/m² | - |
| 1777797319 | 41.11° C | 42% | 740 hPa | - | - | 17 W/m² | - |
| 1777796391 | 41.67° C | 42% | 740 hPa | - | - | 20 W/m² | - |
| 1777795463 | 43.33° C | 40% | 742 hPa | - | - | 23 W/m² | - |
| 1777794534 | 43.33° C | 42% | 743 hPa | - | - | 23 W/m² | - |
| 1777793606 | 42.78° C | 42% | 742 hPa | - | - | 25 W/m² | - |
| 1777792678 | 43.89° C | 42% | 743 hPa | - | - | 26 W/m² | - |
| 1777791750 | 43.89° C | 43% | 743 hPa | - | - | 27 W/m² | - |
| 1777790822 | 42.78° C | 49% | 742 hPa | - | - | 28 W/m² | - |
| 1777789894 | 42.78° C | 59% | 742 hPa | - | - | 28 W/m² | - |
| 1777788967 | 41.67° C | 55% | 740 hPa | - | - | 29 W/m² | - |
* Rain since midnight (hover to see other rain measurements)
** Current wind speed in m/s (hover to see current wind gust speed)